STARLINK-4799 (53860 NORAD) Tracking and Keplerian Element Data

This shows tracking and keplerian element data for the satellite.

Feedback or suggestion? Click here.




ElementValue
Catalog53860
NameSTARLINK-4799
Epoch Orbit130
Epoch Day324.91667824
Epoch Year2022
RAAN307.6123
Inclination53.2141
Eccentricity0.0004039
Argument of Perigee5.2766
Mean Anonmoly224.8554
Mean Motion15.73156744
Decay Rate0.00034181
L11 53860U 22114AU 22324.91667824 .00034181 00000+0 24735-3 0 9998
L22 53860 53.2141 307.6123 0004039 5.2766 224.8554 15.73156744 1301



Live tracking and technical data element details for STARLINK-4799 (NORAD 53860). STARLINK-4799 can be tracked NOW for your location showing map with azimuth and elevation plus other details from your city location.







IsCatalogInMostPopularTable: catalog: 53860, numindb: 2
Update: records affected: 1



GetName: 53860 STARLINK-4799

Hit Count: updated at: Thu, 08 Dec 2022 09:48:04 GMT